AIZ322 UBBB-LLBG

Flight info

Callsign AIZ322
Flight time 2h 56m
Altitude 34000
Route RASAM N199 LUSAL N319 ADEKI N644 BADIR DCT NOLGA UN61 TBN UW706 SIV UT284 EVKIT/N0459F350 UB545 VESAR/N0459F360 DCT EMEDA/N0460F350 DCT TUZIB L189 ZUKKO
Aircraft A320/M-SDE3FGHIRWY/LB1

Departure

Time 2026-05-05 19:25
Airport Heydar Aliyev International Airport (UBBB)

Arrival

Time 2026-05-05 22:21
Airport Ben Gurion International Airport (LLBG)
Time Latitude Longitude Altitude Speed Heading
2026-05-05 19:07 40.46582 50.05024 36 ft 0 kts 111°
2026-05-05 19:17 40.46584 50.05017 9 ft 4 kts 112°
2026-05-05 19:18 40.46596 50.04985 9 ft 4 kts 126°
2026-05-05 19:18 40.46614 50.04960 9 ft 4 kts 152°
2026-05-05 19:18 40.46635 50.04955 9 ft 2 kts 210°
2026-05-05 19:18 40.46637 50.04956 9 ft 0 kts 212°
2026-05-05 19:20 40.46613 50.04937 9 ft 11 kts 211°
2026-05-05 19:20 40.46556 50.04837 9 ft 15 kts 254°
2026-05-05 19:20 40.46550 50.04687 9 ft 17 kts 269°
2026-05-05 19:21 40.46551 50.04521 9 ft 19 kts 271°
2026-05-05 19:21 40.46546 50.04373 9 ft 18 kts 268°
2026-05-05 19:21 40.46515 50.04224 10 ft 18 kts 232°
2026-05-05 19:21 40.46425 50.04216 9 ft 14 kts 153°
2026-05-05 19:22 40.46307 50.04271 9 ft 22 kts 158°
2026-05-05 19:22 40.46168 50.04336 9 ft 23 kts 160°
2026-05-05 19:22 40.46021 50.04409 9 ft 24 kts 159°
2026-05-05 19:22 40.45873 50.04484 9 ft 22 kts 159°
2026-05-05 19:23 40.45735 50.04529 9 ft 19 kts 197°
2026-05-05 19:23 40.45663 50.04410 10 ft 17 kts 246°
2026-05-05 19:23 40.45628 50.04249 8 ft 20 kts 257°
2026-05-05 19:23 40.45689 50.04114 10 ft 19 kts 334°
2026-05-05 19:24 40.45824 50.04062 10 ft 28 kts 346°
2026-05-05 19:24 40.46240 50.03930 9 ft 94 kts 346°
2026-05-05 19:24 40.47055 50.03675 11 ft 145 kts 346°
2026-05-05 19:24 40.48154 50.03330 168 ft 171 kts 345°
2026-05-05 19:25 40.49297 50.02966 820 ft 168 kts 346°
2026-05-05 19:25 40.50436 50.02597 1414 ft 173 kts 347°
2026-05-05 19:25 40.51681 50.02208 1646 ft 193 kts 348°
2026-05-05 19:25 40.52969 50.01807 2315 ft 188 kts 348°
2026-05-05 19:26 40.54244 50.01410 2885 ft 189 kts 348°
2026-05-05 19:26 40.55559 50.01003 3246 ft 203 kts 348°
2026-05-05 19:26 40.56996 50.00562 3491 ft 223 kts 348°
2026-05-05 19:26 40.58578 50.00071 3752 ft 245 kts 347°
2026-05-05 19:27 40.60277 49.99441 4205 ft 261 kts 334°
2026-05-05 19:27 40.61631 49.97848 4797 ft 268 kts 297°
2026-05-05 19:27 40.62110 49.95494 5453 ft 271 kts 273°
2026-05-05 19:27 40.62168 49.93007 6202 ft 273 kts 266°
2026-05-05 19:28 40.62113 49.90504 6931 ft 274 kts 264°
2026-05-05 19:28 40.62033 49.87985 7665 ft 276 kts 264°
2026-05-05 19:28 40.61961 49.85452 8395 ft 278 kts 264°
2026-05-05 19:28 40.61906 49.82895 9131 ft 281 kts 265°
2026-05-05 19:29 40.61869 49.80320 9862 ft 282 kts 265°
2026-05-05 19:29 40.61844 49.77706 10409 ft 288 kts 265°
2026-05-05 19:29 40.61823 49.75079 11170 ft 286 kts 265°
2026-05-05 19:29 40.61805 49.72448 11866 ft 287 kts 265°
2026-05-05 19:30 40.61786 49.69821 12553 ft 288 kts 265°
2026-05-05 19:30 40.61764 49.67180 13243 ft 288 kts 265°
2026-05-05 19:30 40.61738 49.64472 13482 ft 306 kts 265°
2026-05-05 19:30 40.61707 49.61591 13625 ft 325 kts 265°
2026-05-05 19:31 40.61677 49.58563 14005 ft 334 kts 265°
2026-05-05 19:31 40.61658 49.56536 14347 ft 336 kts 265°
2026-05-05 19:31 40.61631 49.53448 14930 ft 337 kts 265°
2026-05-05 19:31 40.61606 49.50359 15526 ft 338 kts 264°
2026-05-05 19:32 40.61567 49.46252 16336 ft 339 kts 264°
2026-05-05 19:32 40.61545 49.44155 16735 ft 340 kts 263°
2026-05-05 19:32 40.61499 49.39985 17502 ft 342 kts 263°
2026-05-05 19:32 40.61476 49.37915 17887 ft 343 kts 263°
2026-05-05 19:33 40.61429 49.33752 18630 ft 344 kts 263°
2026-05-05 19:33 40.61406 49.31621 18975 ft 346 kts 262°
2026-05-05 19:33 40.61369 49.28451 19432 ft 348 kts 262°
2026-05-05 19:33 40.61326 49.25257 19898 ft 350 kts 262°
2026-05-05 19:34 40.61284 49.22047 20368 ft 352 kts 262°
2026-05-05 19:34 40.61243 49.18816 20842 ft 354 kts 262°
2026-05-05 19:34 40.61193 49.15566 21313 ft 356 kts 262°
2026-05-05 19:35 40.61068 49.09003 22261 ft 361 kts 261°
2026-05-05 19:35 40.61002 49.05690 22720 ft 363 kts 261°
2026-05-05 19:35 40.60937 49.02364 23162 ft 365 kts 261°
2026-05-05 19:35 40.60872 48.99009 23579 ft 367 kts 261°
2026-05-05 19:36 40.60805 48.95639 23941 ft 370 kts 261°
2026-05-05 19:36 40.60737 48.92254 24308 ft 371 kts 261°
2026-05-05 19:36 40.60668 48.88854 24672 ft 372 kts 261°
2026-05-05 19:36 40.60598 48.85439 25019 ft 374 kts 261°
2026-05-05 19:37 40.60524 48.82009 25356 ft 376 kts 261°
2026-05-05 19:37 40.60447 48.78566 25692 ft 377 kts 261°
2026-05-05 19:37 40.60370 48.75103 25997 ft 380 kts 261°
2026-05-05 19:37 40.60294 48.71624 26325 ft 381 kts 261°
2026-05-05 19:38 40.60218 48.68129 26631 ft 383 kts 261°
2026-05-05 19:38 40.60139 48.64622 26926 ft 385 kts 261°
2026-05-05 19:38 40.60057 48.61091 27195 ft 387 kts 261°
2026-05-05 19:38 40.59976 48.57596 27492 ft 388 kts 261°
2026-05-05 19:39 40.59892 48.53988 27792 ft 390 kts 261°
2026-05-05 19:39 40.59806 48.50419 28045 ft 391 kts 261°
2026-05-05 19:39 40.59719 48.46851 28334 ft 392 kts 261°
2026-05-05 19:39 40.59633 48.43309 28676 ft 393 kts 261°
2026-05-05 19:40 40.59545 48.39714 28975 ft 394 kts 261°
2026-05-05 19:40 40.59453 48.36113 29245 ft 395 kts 260°
2026-05-05 19:40 40.59358 48.32492 29514 ft 397 kts 260°
2026-05-05 19:40 40.59264 48.28860 29769 ft 398 kts 261°
2026-05-05 19:41 40.59171 48.25212 30016 ft 399 kts 261°
2026-05-05 19:41 40.59078 48.21560 30248 ft 400 kts 261°
2026-05-05 19:41 40.58983 48.17909 30520 ft 398 kts 261°
2026-05-05 19:41 40.58888 48.14276 30811 ft 397 kts 261°
2026-05-05 19:42 40.58789 48.10655 31098 ft 396 kts 261°
2026-05-05 19:42 40.58685 48.07018 31230 ft 399 kts 261°
2026-05-05 19:42 40.58579 48.03348 31377 ft 402 kts 261°
2026-05-05 19:42 40.58635 47.99642 31503 ft 412 kts 269°
2026-05-05 19:43 40.59210 47.95897 31629 ft 425 kts 279°
2026-05-05 19:43 40.60350 47.92250 31795 ft 438 kts 290°
2026-05-05 19:43 40.62048 47.88862 31939 ft 451 kts 300°
2026-05-05 19:43 40.64014 47.85627 32137 ft 452 kts 300°
2026-05-05 19:44 40.65974 47.82398 32342 ft 452 kts 300°
2026-05-05 19:44 40.67931 47.79164 32561 ft 451 kts 300°
2026-05-05 19:44 40.69881 47.75932 32787 ft 450 kts 300°
2026-05-05 19:44 40.71826 47.72699 32972 ft 450 kts 300°
2026-05-05 19:45 40.73767 47.69468 33181 ft 449 kts 300°
2026-05-05 19:45 40.75704 47.66238 33364 ft 449 kts 300°
2026-05-05 19:45 40.77638 47.63010 33550 ft 449 kts 300°
2026-05-05 19:45 40.79572 47.59778 33770 ft 448 kts 300°
2026-05-05 19:46 40.81506 47.56552 33953 ft 448 kts 300°
2026-05-05 19:46 40.85283 47.50231 34006 ft 451 kts 301°
2026-05-05 19:47 40.89167 47.43718 33995 ft 451 kts 301°
2026-05-05 19:47 40.93028 47.37242 33996 ft 451 kts 300°
2026-05-05 19:48 40.96903 47.30718 34031 ft 451 kts 301°
2026-05-05 19:48 41.00767 47.24181 33996 ft 451 kts 301°
2026-05-05 19:49 41.04635 47.17646 34000 ft 451 kts 301°
2026-05-05 19:49 41.08505 47.11106 34005 ft 451 kts 301°
2026-05-05 19:50 41.12365 47.04560 34010 ft 451 kts 301°
2026-05-05 19:50 41.16229 46.97997 34004 ft 451 kts 301°
2026-05-05 19:51 41.19977 46.91611 34001 ft 451 kts 301°
2026-05-05 19:51 41.23827 46.85027 34017 ft 451 kts 301°
2026-05-05 19:52 41.27615 46.78411 34020 ft 446 kts 296°
2026-05-05 19:52 41.30148 46.71065 34017 ft 431 kts 279°
2026-05-05 19:53 41.31308 46.63385 34012 ft 426 kts 275°
2026-05-05 19:53 41.32397 46.55623 34006 ft 427 kts 275°
2026-05-05 19:54 41.33491 46.47843 33999 ft 429 kts 275°
2026-05-05 19:54 41.34571 46.40043 33994 ft 429 kts 275°
2026-05-05 19:55 41.35644 46.32223 33987 ft 429 kts 275°
2026-05-05 19:55 41.36714 46.24410 33987 ft 429 kts 275°
2026-05-05 19:56 41.37771 46.16595 34001 ft 428 kts 275°
2026-05-05 19:56 41.38825 46.08866 33998 ft 426 kts 275°
2026-05-05 19:57 41.39881 46.01048 34000 ft 430 kts 275°
2026-05-05 19:57 41.40924 45.93182 34001 ft 431 kts 275°
2026-05-05 19:58 41.41966 45.85317 33993 ft 431 kts 275°
2026-05-05 19:58 41.43001 45.77495 33989 ft 432 kts 275°
2026-05-05 19:59 41.44046 45.69596 34000 ft 433 kts 275°
2026-05-05 19:59 41.45087 45.61700 33992 ft 432 kts 275°
2026-05-05 20:00 41.46115 45.53799 33987 ft 433 kts 275°
2026-05-05 20:00 41.47139 45.45887 33992 ft 432 kts 275°
2026-05-05 20:01 41.48131 45.37980 33977 ft 431 kts 272°
2026-05-05 20:01 41.48242 45.30061 33956 ft 427 kts 265°
2026-05-05 20:02 41.48132 45.22157 33955 ft 428 kts 265°
2026-05-05 20:02 41.48020 45.14196 33959 ft 429 kts 265°
2026-05-05 20:03 41.47899 45.06246 33962 ft 429 kts 264°
2026-05-05 20:03 41.47767 44.98335 33983 ft 430 kts 265°
2026-05-05 20:04 41.47639 44.90309 33991 ft 436 kts 265°
2026-05-05 20:04 41.47522 44.82316 33989 ft 437 kts 265°
2026-05-05 20:05 41.47388 44.74218 33993 ft 437 kts 265°
2026-05-05 20:05 41.47230 44.66131 33988 ft 436 kts 264°
2026-05-05 20:06 41.47070 44.58042 33999 ft 436 kts 264°
2026-05-05 20:06 41.46910 44.49948 34003 ft 437 kts 264°
2026-05-05 20:07 41.46744 44.41854 34006 ft 436 kts 264°
2026-05-05 20:07 41.46567 44.33769 34002 ft 436 kts 264°
2026-05-05 20:08 41.46386 44.25689 34006 ft 436 kts 264°
2026-05-05 20:08 41.46205 44.17607 34000 ft 436 kts 264°
2026-05-05 20:09 41.46017 44.09529 34005 ft 436 kts 264°
2026-05-05 20:09 41.45825 44.01457 34025 ft 436 kts 264°
2026-05-05 20:10 41.45625 43.93362 33998 ft 437 kts 264°
2026-05-05 20:10 41.45426 43.85385 33986 ft 438 kts 264°
2026-05-05 20:11 41.45212 43.77269 33986 ft 439 kts 264°
2026-05-05 20:11 41.44980 43.69140 33987 ft 439 kts 264°
2026-05-05 20:12 41.44753 43.61004 33989 ft 440 kts 264°
2026-05-05 20:12 41.44529 43.52858 34013 ft 440 kts 264°
2026-05-05 20:13 41.44295 43.44711 33998 ft 440 kts 264°
2026-05-05 20:13 41.44050 43.36547 33993 ft 441 kts 264°
2026-05-05 20:14 41.43800 43.28384 33984 ft 442 kts 264°
2026-05-05 20:14 41.43545 43.20198 33990 ft 442 kts 264°
2026-05-05 20:15 41.43282 43.12021 34004 ft 441 kts 263°
2026-05-05 20:15 41.43011 43.03855 34012 ft 442 kts 263°
2026-05-05 20:16 41.42551 42.95711 33987 ft 439 kts 257°
2026-05-05 20:16 41.41578 42.87677 33981 ft 440 kts 257°
2026-05-05 20:17 41.40597 42.79631 33986 ft 440 kts 257°
2026-05-05 20:17 41.39613 42.71581 34001 ft 441 kts 257°
2026-05-05 20:18 41.38607 42.63520 33991 ft 442 kts 256°
2026-05-05 20:18 41.37769 42.56792 33993 ft 443 kts 257°
2026-05-05 20:19 41.36608 42.47381 34008 ft 444 kts 257°
2026-05-05 20:19 41.35600 42.39262 34011 ft 445 kts 256°
2026-05-05 20:20 41.34738 42.32455 34030 ft 445 kts 256°
2026-05-05 20:20 41.33699 42.24319 34016 ft 446 kts 256°
2026-05-05 20:21 41.32659 42.16172 34025 ft 447 kts 256°
2026-05-05 20:21 41.31612 42.08007 34028 ft 447 kts 256°
2026-05-05 20:22 41.30563 41.99851 34027 ft 448 kts 256°
2026-05-05 20:22 41.29496 41.91692 34032 ft 448 kts 256°
2026-05-05 20:23 41.28413 41.83543 34040 ft 448 kts 256°
2026-05-05 20:23 41.27329 41.75372 34030 ft 449 kts 256°
2026-05-05 20:24 41.26247 41.67243 34034 ft 450 kts 256°
2026-05-05 20:24 41.25148 41.59055 34037 ft 451 kts 256°
2026-05-05 20:25 41.24047 41.50861 34051 ft 450 kts 256°
2026-05-05 20:25 41.22941 41.42671 34041 ft 451 kts 256°
2026-05-05 20:26 41.21820 41.34482 34038 ft 451 kts 256°
2026-05-05 20:26 41.20690 41.26291 34053 ft 451 kts 256°
2026-05-05 20:27 41.19568 41.18091 34037 ft 452 kts 256°
2026-05-05 20:27 41.18432 41.09873 34048 ft 452 kts 256°
2026-05-05 20:28 41.17281 41.01665 34042 ft 453 kts 256°
2026-05-05 20:28 41.16130 40.93452 34037 ft 453 kts 255°
2026-05-05 20:29 41.14965 40.85244 34044 ft 453 kts 255°
2026-05-05 20:29 41.13800 40.77029 34043 ft 453 kts 255°
2026-05-05 20:30 41.12642 40.68803 34038 ft 454 kts 256°
2026-05-05 20:30 41.11470 40.60559 34037 ft 456 kts 256°
2026-05-05 20:31 41.10280 40.52298 34035 ft 456 kts 255°
2026-05-05 20:31 41.09083 40.44025 34031 ft 457 kts 255°
2026-05-05 20:32 41.07882 40.35744 34037 ft 458 kts 255°
2026-05-05 20:32 41.06671 40.27470 34046 ft 458 kts 255°
2026-05-05 20:33 41.05452 40.19188 34042 ft 458 kts 255°
2026-05-05 20:33 41.04231 40.10912 34051 ft 458 kts 255°
2026-05-05 20:34 41.03004 40.02689 34058 ft 459 kts 255°
2026-05-05 20:34 41.01765 39.94401 34074 ft 459 kts 255°
2026-05-05 20:35 41.00520 39.86117 34078 ft 459 kts 255°
2026-05-05 20:35 40.98866 39.78009 34074 ft 453 kts 243°
2026-05-05 20:36 40.96016 39.70619 34069 ft 451 kts 239°
2026-05-05 20:36 40.93118 39.63254 34074 ft 451 kts 239°
2026-05-05 20:37 40.90225 39.55887 34098 ft 452 kts 239°
2026-05-05 20:37 40.88770 39.52195 34215 ft 453 kts 239°
2026-05-05 20:37 40.87315 39.48510 34344 ft 453 kts 239°
2026-05-05 20:37 40.85858 39.44825 34475 ft 453 kts 239°
2026-05-05 20:38 40.84397 39.41139 34617 ft 453 kts 240°
2026-05-05 20:38 40.82961 39.37516 34766 ft 452 kts 240°
2026-05-05 20:38 40.81482 39.33785 34886 ft 452 kts 240°
2026-05-05 20:38 40.80042 39.30172 35033 ft 451 kts 240°
2026-05-05 20:39 40.78576 39.26506 35075 ft 452 kts 240°
2026-05-05 20:39 40.75621 39.19133 35066 ft 452 kts 240°
2026-05-05 20:40 40.72710 39.11852 35077 ft 452 kts 240°
2026-05-05 20:40 40.69776 39.04524 35063 ft 452 kts 240°
2026-05-05 20:41 40.66834 38.97217 35064 ft 452 kts 240°
2026-05-05 20:41 40.63879 38.89913 35075 ft 452 kts 240°
2026-05-05 20:42 40.60920 38.82621 35073 ft 452 kts 240°
2026-05-05 20:42 40.57957 38.75319 35073 ft 451 kts 240°
2026-05-05 20:43 40.54992 38.68047 35058 ft 452 kts 240°
2026-05-05 20:43 40.52325 38.61502 35056 ft 452 kts 240°
2026-05-05 20:44 40.49334 38.54254 35051 ft 450 kts 239°
2026-05-05 20:44 40.46242 38.47062 35038 ft 454 kts 239°
2026-05-05 20:45 40.41553 38.36246 35052 ft 455 kts 239°
2026-05-05 20:45 40.38438 38.29025 35052 ft 456 kts 239°
2026-05-05 20:46 40.35396 38.21734 35054 ft 455 kts 241°
2026-05-05 20:46 40.32505 38.14428 35055 ft 454 kts 242°
2026-05-05 20:47 40.29535 38.07135 35044 ft 453 kts 240°
2026-05-05 20:47 40.26459 37.99926 35052 ft 453 kts 240°
2026-05-05 20:48 40.23370 37.92742 35051 ft 453 kts 240°
2026-05-05 20:48 40.20304 37.85553 35040 ft 452 kts 240°
2026-05-05 20:49 40.17248 37.78365 35047 ft 452 kts 240°
2026-05-05 20:49 40.14190 37.71191 35048 ft 452 kts 240°
2026-05-05 20:50 40.11125 37.64033 35033 ft 451 kts 240°
2026-05-05 20:50 40.08054 37.56877 35032 ft 451 kts 240°
2026-05-05 20:51 40.05001 37.49730 35031 ft 451 kts 240°
2026-05-05 20:51 40.01942 37.42570 35027 ft 451 kts 240°
2026-05-05 20:52 39.98886 37.35425 35026 ft 451 kts 241°
2026-05-05 20:52 39.95825 37.28289 35027 ft 451 kts 240°
2026-05-05 20:53 39.92742 37.21157 35033 ft 451 kts 240°
2026-05-05 20:53 39.89661 37.14031 35027 ft 451 kts 241°
2026-05-05 20:54 39.86588 37.06908 35031 ft 451 kts 241°
2026-05-05 20:54 39.83511 36.99797 35034 ft 451 kts 240°
2026-05-05 20:55 39.80387 36.92719 35030 ft 451 kts 237°
2026-05-05 20:55 39.76167 36.86733 35025 ft 452 kts 218°
2026-05-05 20:56 39.71068 36.81918 35023 ft 453 kts 217°
2026-05-05 20:56 39.65966 36.77093 35026 ft 454 kts 217°
2026-05-05 20:57 39.60856 36.72264 35020 ft 454 kts 217°
2026-05-05 20:57 39.55770 36.67482 35031 ft 455 kts 217°
2026-05-05 20:58 39.50641 36.62680 35024 ft 455 kts 217°
2026-05-05 20:58 39.45504 36.57879 35022 ft 455 kts 217°
2026-05-05 20:59 39.40376 36.53071 35029 ft 456 kts 217°
2026-05-05 20:59 39.35234 36.48267 35023 ft 456 kts 218°
2026-05-05 21:00 39.30079 36.43477 35040 ft 457 kts 218°
2026-05-05 21:00 39.24925 36.38694 35040 ft 456 kts 218°
2026-05-05 21:01 39.19775 36.33915 35045 ft 455 kts 218°
2026-05-05 21:01 39.14642 36.29162 35049 ft 454 kts 218°
2026-05-05 21:02 39.09517 36.24424 35055 ft 453 kts 218°
2026-05-05 21:02 39.04402 36.19704 35045 ft 452 kts 218°
2026-05-05 21:03 38.99292 36.15001 35048 ft 451 kts 218°
2026-05-05 21:03 38.94183 36.10306 35045 ft 451 kts 218°
2026-05-05 21:04 38.89082 36.05616 35035 ft 451 kts 218°
2026-05-05 21:04 38.83982 36.00935 35042 ft 451 kts 218°
2026-05-05 21:05 38.78878 35.96278 35040 ft 450 kts 218°
2026-05-05 21:05 38.73775 35.91626 35042 ft 450 kts 218°
2026-05-05 21:06 38.68677 35.86970 35045 ft 450 kts 218°
2026-05-05 21:06 38.64435 35.83104 35030 ft 450 kts 219°
2026-05-05 21:07 38.59327 35.78475 35043 ft 450 kts 218°
2026-05-05 21:07 38.53387 35.73112 35047 ft 450 kts 218°
2026-05-05 21:08 38.49107 35.69242 35026 ft 450 kts 219°
2026-05-05 21:08 38.44036 35.64649 35034 ft 450 kts 219°
2026-05-05 21:09 38.38927 35.60037 35039 ft 450 kts 219°
2026-05-05 21:09 38.33819 35.55442 35025 ft 449 kts 219°
2026-05-05 21:10 38.28705 35.50851 35024 ft 450 kts 219°
2026-05-05 21:10 38.23581 35.46260 35027 ft 451 kts 219°
2026-05-05 21:11 38.18460 35.41690 35018 ft 451 kts 220°
2026-05-05 21:11 38.13318 35.37109 35025 ft 451 kts 220°
2026-05-05 21:12 38.08183 35.32536 35039 ft 451 kts 220°
2026-05-05 21:12 38.03040 35.27973 35030 ft 451 kts 220°
2026-05-05 21:13 37.97938 35.23457 35035 ft 450 kts 220°
2026-05-05 21:13 37.92810 35.18912 35046 ft 451 kts 220°
2026-05-05 21:14 37.87666 35.14359 35052 ft 451 kts 220°
2026-05-05 21:14 37.82518 35.09813 35061 ft 451 kts 220°
2026-05-05 21:15 37.77370 35.05285 35043 ft 451 kts 220°
2026-05-05 21:15 37.72227 35.00763 35064 ft 450 kts 220°
2026-05-05 21:16 37.67090 34.96250 35065 ft 450 kts 220°
2026-05-05 21:16 37.61961 34.91759 35075 ft 449 kts 220°
2026-05-05 21:17 37.56833 34.87278 35076 ft 448 kts 220°
2026-05-05 21:17 37.51743 34.82836 35078 ft 448 kts 220°
2026-05-05 21:18 37.46594 34.78340 35057 ft 447 kts 220°
2026-05-05 21:18 37.41526 34.73923 35067 ft 445 kts 220°
2026-05-05 21:19 37.36444 34.69502 35076 ft 445 kts 220°
2026-05-05 21:19 37.31352 34.65095 35069 ft 444 kts 220°
2026-05-05 21:20 37.26270 34.60697 35075 ft 444 kts 220°
2026-05-05 21:20 37.21196 34.56304 35066 ft 443 kts 220°
2026-05-05 21:21 37.16118 34.51925 35037 ft 443 kts 220°
2026-05-05 21:21 37.11051 34.47560 35062 ft 441 kts 219°
2026-05-05 21:22 37.06002 34.43209 35055 ft 441 kts 219°
2026-05-05 21:22 37.00950 34.38869 35053 ft 441 kts 219°
2026-05-05 21:23 36.95889 34.34543 35037 ft 440 kts 219°
2026-05-05 21:23 36.90836 34.30220 35040 ft 440 kts 219°
2026-05-05 21:24 36.85785 34.25899 35043 ft 440 kts 219°
2026-05-05 21:24 36.80777 34.21616 35033 ft 440 kts 219°
2026-05-05 21:25 36.75691 34.17284 35033 ft 440 kts 219°
2026-05-05 21:25 36.70627 34.12991 35028 ft 440 kts 219°
2026-05-05 21:26 36.65600 34.08731 35030 ft 439 kts 219°
2026-05-05 21:26 36.60555 34.04449 35042 ft 439 kts 219°
2026-05-05 21:27 36.55513 34.00185 35046 ft 438 kts 219°
2026-05-05 21:27 36.50490 33.95940 35025 ft 436 kts 219°
2026-05-05 21:28 36.45471 33.91702 35024 ft 436 kts 219°
2026-05-05 21:28 36.40448 33.87474 35030 ft 436 kts 218°
2026-05-05 21:29 36.37768 33.85678 35023 ft 444 kts 204°
2026-05-05 21:29 36.34732 33.84827 35006 ft 453 kts 188°
2026-05-05 21:29 36.31559 33.85096 35003 ft 464 kts 171°
2026-05-05 21:29 36.28454 33.86279 35002 ft 468 kts 166°
2026-05-05 21:30 36.22291 33.88858 34994 ft 469 kts 166°
2026-05-05 21:30 36.16110 33.91461 34996 ft 470 kts 166°
2026-05-05 21:31 36.09908 33.94036 34981 ft 470 kts 166°
2026-05-05 21:31 36.03706 33.96590 34988 ft 470 kts 166°
2026-05-05 21:32 35.97497 33.99147 34996 ft 470 kts 166°
2026-05-05 21:32 35.91205 34.00997 34999 ft 460 kts 181°
2026-05-05 21:33 35.84956 34.00624 34994 ft 450 kts 192°
2026-05-05 21:33 35.78736 33.99678 34996 ft 451 kts 192°
2026-05-05 21:34 35.72497 33.98734 35007 ft 451 kts 192°
2026-05-05 21:34 35.66264 33.97801 34991 ft 451 kts 192°
2026-05-05 21:35 35.60033 33.96878 35006 ft 451 kts 192°
2026-05-05 21:35 35.53840 33.95954 35016 ft 451 kts 192°
2026-05-05 21:36 35.47616 33.95014 35023 ft 450 kts 192°
2026-05-05 21:36 35.41387 33.94078 35025 ft 451 kts 192°
2026-05-05 21:37 35.35158 33.93148 35022 ft 451 kts 192°
2026-05-05 21:37 35.28933 33.92219 35004 ft 451 kts 192°
2026-05-05 21:38 35.22704 33.91295 35014 ft 451 kts 192°
2026-05-05 21:38 35.16480 33.90375 35022 ft 451 kts 192°
2026-05-05 21:39 35.10360 33.89463 35029 ft 451 kts 192°
2026-05-05 21:39 35.04138 33.88543 35016 ft 450 kts 192°
2026-05-05 21:40 34.97921 33.87633 35024 ft 449 kts 192°
2026-05-05 21:40 34.91722 33.86721 35026 ft 449 kts 193°
2026-05-05 21:41 34.85518 33.85800 35008 ft 448 kts 193°
2026-05-05 21:41 34.79326 33.84885 35017 ft 449 kts 193°
2026-05-05 21:42 34.73125 33.83984 35024 ft 449 kts 192°
2026-05-05 21:42 34.66948 33.83088 35005 ft 449 kts 193°
2026-05-05 21:43 34.60751 33.82179 35017 ft 448 kts 193°
2026-05-05 21:43 34.54560 33.81269 35027 ft 448 kts 193°
2026-05-05 21:44 34.48360 33.80445 34999 ft 451 kts 187°
2026-05-05 21:44 34.42047 33.80815 35014 ft 456 kts 182°
2026-05-05 21:45 34.35713 33.81298 35029 ft 456 kts 182°
2026-05-05 21:45 34.29424 33.81782 35034 ft 456 kts 182°
2026-05-05 21:46 34.23093 33.82280 35013 ft 456 kts 182°
2026-05-05 21:46 34.16725 33.82776 35037 ft 455 kts 182°
2026-05-05 21:47 34.10402 33.83270 35044 ft 456 kts 182°
2026-05-05 21:47 34.05253 33.83675 35048 ft 455 kts 182°
2026-05-05 21:48 33.98949 33.84164 35024 ft 454 kts 182°
2026-05-05 21:48 33.92589 33.84627 35053 ft 461 kts 182°
2026-05-05 21:49 33.86167 33.85097 35047 ft 463 kts 182°
2026-05-05 21:49 33.79737 33.85584 35041 ft 463 kts 182°
2026-05-05 21:50 33.73308 33.86094 35051 ft 462 kts 182°
2026-05-05 21:50 33.66889 33.86606 35056 ft 462 kts 182°
2026-05-05 21:51 33.60469 33.87103 35057 ft 461 kts 182°
2026-05-05 21:51 33.57277 33.87349 34458 ft 460 kts 183°
2026-05-05 21:51 33.54068 33.87592 33391 ft 465 kts 182°
2026-05-05 21:52 33.47560 33.88100 31175 ft 472 kts 182°
2026-05-05 21:52 33.44269 33.88366 30010 ft 477 kts 181°
2026-05-05 21:52 33.40956 33.88632 29166 ft 475 kts 181°
2026-05-05 21:53 33.37656 33.88893 28553 ft 474 kts 181°
2026-05-05 21:53 33.34383 33.89149 27914 ft 469 kts 181°
2026-05-05 21:53 33.31147 33.89399 27252 ft 463 kts 181°
2026-05-05 21:53 33.27945 33.89642 26606 ft 458 kts 181°
2026-05-05 21:54 33.24782 33.89879 25976 ft 453 kts 181°
2026-05-05 21:54 33.21648 33.90114 25342 ft 452 kts 180°
2026-05-05 21:54 33.18495 33.90350 24714 ft 454 kts 180°
2026-05-05 21:54 33.15354 33.90583 24073 ft 451 kts 180°
2026-05-05 21:55 33.12233 33.90815 23426 ft 447 kts 180°
2026-05-05 21:55 33.09137 33.91043 22807 ft 444 kts 180°
2026-05-05 21:55 33.06061 33.91266 22256 ft 441 kts 180°
2026-05-05 21:55 33.03006 33.91487 21716 ft 438 kts 180°
2026-05-05 21:56 33.00014 33.91705 21209 ft 435 kts 180°
2026-05-05 21:56 32.97001 33.91927 20686 ft 432 kts 180°
2026-05-05 21:56 32.94008 33.92149 20172 ft 430 kts 180°
2026-05-05 21:56 32.91035 33.92372 19635 ft 427 kts 179°
2026-05-05 21:57 32.88081 33.92594 19138 ft 424 kts 179°
2026-05-05 21:57 32.85146 33.92811 18611 ft 421 kts 179°
2026-05-05 21:57 32.82233 33.93024 18042 ft 418 kts 179°
2026-05-05 21:57 32.79337 33.93233 17492 ft 415 kts 179°
2026-05-05 21:58 32.76471 33.93439 16913 ft 412 kts 179°
2026-05-05 21:58 32.73615 33.93644 16374 ft 409 kts 179°
2026-05-05 21:58 32.70786 33.93847 15825 ft 406 kts 179°
2026-05-05 21:58 32.67976 33.94049 15281 ft 403 kts 179°
2026-05-05 21:59 32.65188 33.94251 14759 ft 400 kts 179°
2026-05-05 21:59 32.62418 33.94457 14218 ft 397 kts 179°
2026-05-05 21:59 32.60595 33.94595 13863 ft 395 kts 179°
2026-05-05 21:59 32.57892 33.95180 13283 ft 397 kts 165°
2026-05-05 22:00 32.54619 33.97158 12751 ft 398 kts 145°
2026-05-05 22:00 32.53216 33.98599 12588 ft 406 kts 137°
2026-05-05 22:00 32.51254 34.01012 12293 ft 407 kts 135°
2026-05-05 22:00 32.49305 34.03441 11993 ft 405 kts 135°
2026-05-05 22:01 32.47373 34.05864 11704 ft 403 kts 135°
2026-05-05 22:01 32.45449 34.08271 11406 ft 402 kts 135°
2026-05-05 22:01 32.43667 34.10807 11112 ft 400 kts 124°
2026-05-05 22:01 32.42499 34.13732 10933 ft 387 kts 108°
2026-05-05 22:02 32.41902 34.16767 10807 ft 371 kts 102°
2026-05-05 22:02 32.41387 34.19672 10683 ft 356 kts 103°
2026-05-05 22:02 32.40878 34.22497 10562 ft 342 kts 103°
2026-05-05 22:02 32.40391 34.25185 10433 ft 324 kts 103°
2026-05-05 22:03 32.39926 34.27728 10038 ft 311 kts 103°
2026-05-05 22:03 32.39474 34.30199 9433 ft 306 kts 103°
2026-05-05 22:03 32.39028 34.32660 8849 ft 304 kts 103°
2026-05-05 22:03 32.38592 34.35075 8548 ft 298 kts 103°
2026-05-05 22:04 32.38161 34.37470 8422 ft 296 kts 102°
2026-05-05 22:04 32.37732 34.39846 8295 ft 295 kts 103°
2026-05-05 22:04 32.37301 34.42219 8171 ft 294 kts 103°
2026-05-05 22:04 32.36871 34.44578 8046 ft 293 kts 103°
2026-05-05 22:05 32.36442 34.46939 7918 ft 293 kts 103°
2026-05-05 22:05 32.36014 34.49292 7792 ft 292 kts 103°
2026-05-05 22:05 32.35419 34.51579 7665 ft 290 kts 116°
2026-05-05 22:05 32.34376 34.53605 7543 ft 288 kts 131°
2026-05-05 22:06 32.33015 34.55331 7423 ft 286 kts 136°
2026-05-05 22:06 32.31631 34.57022 7303 ft 286 kts 136°
2026-05-05 22:06 32.30253 34.58717 7301 ft 286 kts 136°
2026-05-05 22:06 32.28878 34.60407 7300 ft 286 kts 136°
2026-05-05 22:07 32.27519 34.62076 7299 ft 286 kts 136°
2026-05-05 22:07 32.26138 34.63769 7299 ft 286 kts 136°
2026-05-05 22:07 32.24756 34.65462 7300 ft 286 kts 136°
2026-05-05 22:07 32.23376 34.67154 7299 ft 286 kts 136°
2026-05-05 22:08 32.21994 34.68846 7297 ft 287 kts 136°
2026-05-05 22:08 32.20609 34.70544 7298 ft 287 kts 136°
2026-05-05 22:08 32.19226 34.72242 7300 ft 287 kts 136°
2026-05-05 22:08 32.17838 34.73940 7298 ft 287 kts 136°
2026-05-05 22:09 32.16456 34.75637 7298 ft 288 kts 134°
2026-05-05 22:09 32.15285 34.77562 7299 ft 290 kts 119°
2026-05-05 22:09 32.14423 34.79716 7225 ft 290 kts 116°
2026-05-05 22:09 32.13577 34.81873 7116 ft 289 kts 116°
2026-05-05 22:10 32.12728 34.84024 7118 ft 289 kts 116°
2026-05-05 22:10 32.11879 34.86176 7119 ft 290 kts 116°
2026-05-05 22:10 32.11031 34.88328 7118 ft 289 kts 116°
2026-05-05 22:10 32.10179 34.90481 7092 ft 290 kts 116°
2026-05-05 22:11 32.09323 34.92633 6993 ft 289 kts 116°
2026-05-05 22:11 32.08468 34.94781 6897 ft 289 kts 116°
2026-05-05 22:11 32.07617 34.96925 6810 ft 289 kts 116°
2026-05-05 22:11 32.06768 34.99068 6723 ft 288 kts 116°
2026-05-05 22:12 32.05917 35.01214 6636 ft 289 kts 116°
2026-05-05 22:12 32.05065 35.03362 6542 ft 290 kts 115°
2026-05-05 22:12 32.04210 35.05515 6455 ft 290 kts 115°
2026-05-05 22:12 32.03358 35.07662 6361 ft 289 kts 116°
2026-05-05 22:13 32.02507 35.09805 6271 ft 289 kts 115°
2026-05-05 22:13 32.01665 35.11935 6175 ft 281 kts 115°
2026-05-05 22:13 32.00810 35.13938 6085 ft 265 kts 126°
2026-05-05 22:13 31.99592 35.15422 6014 ft 251 kts 148°
2026-05-05 22:14 31.98038 35.16277 5790 ft 245 kts 170°
2026-05-05 22:14 31.96371 35.16435 5540 ft 241 kts 184°
2026-05-05 22:14 31.94711 35.16330 5291 ft 237 kts 194°
2026-05-05 22:14 31.93115 35.15854 5056 ft 237 kts 199°
2026-05-05 22:15 31.91537 35.15345 4812 ft 234 kts 202°
2026-05-05 22:15 31.90229 35.14324 4575 ft 224 kts 236°
2026-05-05 22:15 31.89669 35.12691 4349 ft 213 kts 268°
2026-05-05 22:15 31.89684 35.10977 4136 ft 205 kts 272°
2026-05-05 22:16 31.89795 35.09346 3929 ft 197 kts 285°
2026-05-05 22:16 31.90343 35.07919 3796 ft 183 kts 302°
2026-05-05 22:16 31.90991 35.06686 3671 ft 174 kts 301°
2026-05-05 22:16 31.91616 35.05490 3470 ft 170 kts 301°
2026-05-05 22:17 31.92231 35.04312 3237 ft 169 kts 301°
2026-05-05 22:17 31.92836 35.03153 2983 ft 162 kts 301°
2026-05-05 22:17 31.93397 35.02079 2791 ft 148 kts 301°
2026-05-05 22:17 31.93924 35.01069 2575 ft 143 kts 300°
2026-05-05 22:18 31.94444 35.00073 2367 ft 142 kts 301°
2026-05-05 22:18 31.94962 34.99081 2174 ft 143 kts 301°
2026-05-05 22:18 31.95475 34.98098 1974 ft 140 kts 301°
2026-05-05 22:18 31.95981 34.97128 1769 ft 138 kts 301°
2026-05-05 22:19 31.96485 34.96161 1572 ft 139 kts 301°
2026-05-05 22:19 31.96983 34.95207 1374 ft 139 kts 301°
2026-05-05 22:19 31.97494 34.94225 1172 ft 139 kts 301°
2026-05-05 22:19 31.98000 34.93256 972 ft 139 kts 301°
2026-05-05 22:20 31.98508 34.92281 774 ft 140 kts 301°
2026-05-05 22:20 31.99009 34.91318 578 ft 140 kts 301°
2026-05-05 22:20 31.99518 34.90342 376 ft 140 kts 302°
2026-05-05 22:20 32.00024 34.89371 170 ft 139 kts 302°
2026-05-05 22:21 32.00502 34.88460 120 ft 112 kts 301°
2026-05-05 22:21 32.00819 34.87847 117 ft 61 kts 301°
2026-05-05 22:21 32.00997 34.87500 120 ft 45 kts 301°
2026-05-05 22:21 32.01061 34.87247 119 ft 30 kts 278°
2026-05-05 22:22 32.01066 34.87060 120 ft 20 kts 262°
2026-05-05 22:22 32.01008 34.86924 120 ft 19 kts 194°
2026-05-05 22:22 32.00934 34.87031 119 ft 24 kts 122°
2026-05-05 22:22 32.00843 34.87200 119 ft 25 kts 121°
2026-05-05 22:23 32.00749 34.87380 118 ft 27 kts 121°
2026-05-05 22:23 32.00651 34.87565 118 ft 23 kts 126°
2026-05-05 22:23 32.00549 34.87674 118 ft 18 kts 173°
2026-05-05 22:23 32.00448 34.87675 118 ft 11 kts 241°
2026-05-05 22:24 32.00417 34.87612 119 ft 3 kts 237°
2026-05-05 22:24 32.00417 34.87611 120 ft 0 kts 237°